sat.trackr.live / text

‹ back to catalog

STARLINK-11462 [DTC]

NORAD 62412 · 2024-249D

PAYLOAD ACTIVE UNKNOWN

§ Identity

Operator
Country
US
Launch date
2024-12-23
Launch site
AFETR
Launch vehicle
Mass (kg)
RCS (m²)

Purposes: comms

External: N2YO · Heavens-Above · Gunter

§ Orbital elements

Epoch: 2026-05-25T03:53:42.447840Z

Period
89.72 min
Inclination
42.9899°
Eccentricity
0.0014203
Mean motion
16.05021964 rev/d
Perigee alt
251.1 km
Apogee alt
270.0 km
Semi-major
6,638.7 km
B*
1.4187e-3
RAAN
58.0302°
Arg perigee
225.9873°
Mean anomaly
133.9837°
Rev number
8,160

§ Raw data

STARLINK-11462 [DTC]1 62412U 24249D   26145.16229685  .01023341  56252-3  14187-2 0  99932 62412  42.9899  58.0302 0014203 225.9873 133.9837 16.05021964 81605

JSON: /api/v1/satellites/62412 · /tle

For live sub-satellite position, see the globe view (requires WebGL).

§ Visibility from observer

Set your observer location to see the next 7 days of passes ≥ 10°. The values pass through the URL so the page stays shareable.

No JS? Fill the form by hand. The geolocation button needs JavaScript.